Location: Chin
(49.7667°N, 112.4500°W)
Time: 12:24:23
(UTC+00:00)

N. Korean satellite - Pass Details

Date: 09 December 2021
Orbit: 447 x 491 km, 97.3° (Epoch: 21 January)

Event Time Altitude Azimuth Distance (km) Brightness Sun altitude
Rises 13:23:05 0° 6° (N) 2,465 10.1 -17.1°
Reaches altitude 10° 13:25:12 10° 359° (N) 1,586 9.0 -16.8°
Maximum altitude 13:28:23 39° 289° (WNW) 688 6.8 -16.3°
Drops below altitude 10° 13:31:33 10° 219° (SW) 1,575 8.9 -15.8°
Sets 13:33:38 0° 212° (SSW) 2,446 10.0 -15.5°
